TimeCDT,TemperatureF,Dew PointF,Humidity,Sea Level PressureIn,VisibilityMPH,Wind Direction,Wind SpeedMPH,Gust SpeedMPH,PrecipitationIn,Events,Conditions,WindDirDegrees,DateUTC
12:53 AM,60.1,50.0,69,30.04,10.0,SE,6.9,-,N/A,,Clear,130,2013-07-29 05:53:00
1:53 AM,59.0,48.9,69,30.04,10.0,SE,8.1,-,N/A,,Clear,140,2013-07-29 06:53:00
2:53 AM,57.0,48.9,74,30.03,10.0,SE,6.9,-,N/A,,Partly Cloudy,140,2013-07-29 07:53:00
3:53 AM,55.9,48.9,77,30.03,10.0,SE,5.8,-,N/A,,Clear,130,2013-07-29 08:53:00
4:53 AM,55.0,48.9,80,30.02,10.0,SE,5.8,-,N/A,,Clear,140,2013-07-29 09:53:00
5:53 AM,54.0,50.0,86,30.03,10.0,ESE,4.6,-,N/A,,Partly Cloudy,110,2013-07-29 10:53:00
6:53 AM,57.9,48.9,72,30.01,10.0,SSE,11.5,-,N/A,,Overcast,150,2013-07-29 11:53:00
7:53 AM,60.1,50.0,69,30.02,10.0,SE,8.1,-,0.00,,Overcast,140,2013-07-29 12:53:00
8:53 AM,62.1,50.0,65,30.04,10.0,South,9.2,-,N/A,,Overcast,170,2013-07-29 13:53:00
9:53 AM,61.0,54.0,78,30.04,8.0,SE,6.9,-,0.01,Rain,Light Rain,140,2013-07-29 14:53:00
10:53 AM,62.1,55.0,78,30.04,10.0,SE,6.9,-,0.03,,Overcast,130,2013-07-29 15:53:00
11:53 AM,64.9,54.0,68,30.03,10.0,SSE,10.4,-,N/A,,Overcast,160,2013-07-29 16:53:00
12:53 PM,66.9,55.0,66,30.03,10.0,SSE,17.3,20.7,N/A,,Overcast,160,2013-07-29 17:53:00
1:53 PM,68.0,55.9,65,30.02,10.0,SSE,16.1,20.7,N/A,,Overcast,150,2013-07-29 18:53:00
2:53 PM,66.9,55.9,68,30.03,10.0,SSE,12.7,-,N/A,,Overcast,160,2013-07-29 19:53:00
3:36 PM,66.2,57.2,73,30.04,10.0,SSE,12.7,-,N/A,,Overcast,160,2013-07-29 20:36:00
3:53 PM,66.0,57.0,73,30.04,10.0,SSE,13.8,-,N/A,,Overcast,160,2013-07-29 20:53:00
4:53 PM,64.9,57.9,78,30.03,10.0,SSE,16.1,-,N/A,,Overcast,160,2013-07-29 21:53:00
5:53 PM,64.9,59.0,81,30.02,10.0,SSE,13.8,19.6,N/A,,Overcast,150,2013-07-29 22:53:00
6:26 PM,66.2,57.2,73,30.03,10.0,SSE,10.4,-,N/A,,Overcast,150,2013-07-29 23:26:00
6:53 PM,66.0,57.9,75,30.02,10.0,SSE,12.7,-,N/A,,Overcast,150,2013-07-29 23:53:00
7:53 PM,66.0,57.9,75,30.02,10.0,SSE,9.2,-,N/A,,Overcast,150,2013-07-30 00:53:00
8:53 PM,64.9,59.0,81,30.03,10.0,SSE,6.9,-,N/A,,Overcast,160,2013-07-30 01:53:00
9:24 PM,64.4,59.0,83,30.04,10.0,SE,6.9,-,N/A,,Overcast,140,2013-07-30 02:24:00
9:43 PM,64.4,59.0,83,30.05,10.0,SE,8.1,-,N/A,,Overcast,140,2013-07-30 02:43:00
9:53 PM,64.0,59.0,84,30.04,10.0,SSE,9.2,-,N/A,,Overcast,150,2013-07-30 02:53:00
10:31 PM,62.6,59.0,88,30.05,10.0,SSE,11.5,-,N/A,,Overcast,150,2013-07-30 03:31:00
10:53 PM,63.0,57.9,84,30.05,10.0,SSE,10.4,-,N/A,,Mostly Cloudy,150,2013-07-30 03:53:00
11:53 PM,61.0,57.9,90,30.05,10.0,SSE,6.9,-,N/A,,Mostly Cloudy,160,2013-07-30 04:53:00